Weather History for KFAR - May, 2013

Change the Weather History Date:

Saturday, May 11, 2013

  Actual Average Record
Temperature  
Mean Temperature 43 °F 56 °F  
Max Temperature 54 °F 68 °F 93 °F (1906)
Min Temperature 32 °F 43 °F 19 °F (1946)
Degree Days  
Heating Degree Days 22 10  
Month to date heating degree days 180 128  
Since 1 July heating degree days 9172 8584  
Cooling Degree Days 0 1  
Month to date cooling degree days 0 7  
Year to date cooling degree days 0 10  
Moisture  
Dew Point 21 °F    
Average Humidity 46    
Maximum Humidity 70    
Minimum Humidity 22    
Precipitation  
Precipitation 0.00 in 0.09 in 1.69 in (1944)
Month to date precipitation 0.14 0.89  
Year to date precipitation 5.88 4.89  
Snow  
Snow 0.00 in 0.00 in 0.50 in (1946)
Month to date snowfall 0.0 0.0  
Since 1 July snowfall 68.4 50.4  
Snow Depth 0.00 in    
Sea Level Pressure  
Sea Level Pressure 30.26 in    
Wind  
Wind Speed 21 mph (NNW)    
Max Wind Speed 35 mph    
Max Gust Speed 43 mph    
Visibility 10 miles    
Events      
T = Trace of Precipitation, MM = Missing Value Source: NWS Daily Summary

Daily Weather History Graph

Daily Weather History Graph

Search for Another Location

Airport or City:

Trip Planner

Search our weather history database for the weather conditions in past years. The results will help you decide how hot, cold, wet, or windy it might be!

Date:

Astronomy

May. 11, 2013 Rise Set
Actual Time 5:56 AM CDT 8:51 PM CDT
Civil Twilight 5:21 AM CDT 9:26 PM CDT
Nautical Twilight 4:36 AM CDT 10:12 PM CDT
Astronomical Twilight 3:42 AM CDT 11:06 PM CDT
Moon 7:03 AM CDT (5/11) 10:34 PM CDT (5/11)
Length of Visible Light 16h 05m
Length of Day
14h 54m
Waxing Crescent, 3% of the Moon is Illuminated
May 11
Waxing Crescent
May 17
First Quarter
May 24
Full
May 31
Last Quarter
Jun 8
New

Hourly Weather History & Observations

Time (CDT) Temp. Windchill Dew Point Humidity Pressure Visibility Wind Dir Wind Speed Gust Speed Precip Events Conditions
12:53 AM 42.1 °F 34.9 °F 23.0 °F 47% 30.15 in 10.0 mi NNW 13.8 mph - N/A   Scattered Clouds
1:53 AM 42.1 °F 32.6 °F 23.0 °F 47% 30.18 in 10.0 mi NNW 23.0 mph 31.1 mph N/A   Mostly Cloudy
2:53 AM 39.9 °F 31.8 °F 28.0 °F 63% 30.19 in 10.0 mi NNW 15.0 mph - N/A   Scattered Clouds
3:53 AM 39.0 °F 29.3 °F 28.9 °F 67% 30.20 in 10.0 mi NW 19.6 mph 23.0 mph N/A   Scattered Clouds
4:53 AM 37.9 °F 27.6 °F 28.9 °F 70% 30.23 in 10.0 mi NNW 20.7 mph - N/A   Clear
5:53 AM 37.0 °F 27.0 °F 28.0 °F 70% 30.24 in 10.0 mi NNW 18.4 mph - N/A   Unknown
6:53 AM 37.9 °F 26.8 °F 27.0 °F 65% 30.27 in 10.0 mi NNW 24.2 mph 32.2 mph N/A   Clear
7:53 AM 39.9 °F 29.0 °F 26.1 °F 58% 30.29 in 10.0 mi NNW 26.5 mph 34.5 mph N/A   Clear
8:53 AM 42.1 °F 31.1 °F 24.1 °F 49% 30.31 in 10.0 mi NNW 31.1 mph 40.3 mph N/A   Mostly Cloudy
9:53 AM 44.1 °F 35.0 °F 23.0 °F 43% 30.31 in 10.0 mi North 24.2 mph 36.8 mph N/A   Partly Cloudy
10:53 AM 45.0 °F 35.1 °F 21.9 °F 40% 30.32 in 10.0 mi NNW 31.1 mph 39.1 mph N/A   Scattered Clouds
11:53 AM 48.0 °F - 23.0 °F 37% 30.32 in 10.0 mi NNW 23.0 mph 36.8 mph N/A   Scattered Clouds
12:53 PM 48.9 °F - 19.9 °F 32% 30.31 in 10.0 mi North 27.6 mph 34.5 mph N/A   Clear
1:53 PM 51.1 °F - 19.9 °F 29% 30.30 in 10.0 mi NNW 25.3 mph 33.4 mph N/A   Scattered Clouds
2:53 PM 52.0 °F - 18.0 °F 26% 30.29 in 10.0 mi NNW 27.6 mph 38.0 mph N/A   Clear
3:53 PM 53.1 °F - 18.0 °F 25% 30.27 in 10.0 mi North 24.2 mph 38.0 mph N/A   Clear
4:53 PM 53.1 °F - 15.1 °F 22% 30.27 in 10.0 mi North 26.5 mph 35.7 mph N/A   Clear
5:53 PM 52.0 °F - 14.0 °F 22% 30.27 in 10.0 mi North 24.2 mph 32.2 mph N/A   Clear
6:53 PM 51.1 °F - 14.0 °F 23% 30.27 in 10.0 mi North 24.2 mph 28.8 mph N/A   Clear
7:53 PM 48.9 °F - 15.1 °F 26% 30.26 in 10.0 mi North 17.3 mph - N/A   Clear
8:53 PM 46.0 °F 40.6 °F 14.0 °F 28% 30.26 in 10.0 mi North 11.5 mph - N/A   Clear
9:53 PM 41.0 °F 35.8 °F 12.9 °F 32% 30.27 in 10.0 mi North 8.1 mph - N/A   Clear
10:53 PM 36.0 °F 29.6 °F 12.9 °F 39% 30.28 in 10.0 mi North 8.1 mph - N/A   Clear
11:53 PM 35.1 °F 27.9 °F 12.9 °F 40% 30.28 in 10.0 mi North 9.2 mph - N/A   Clear